Regional Weather Roundup
Issued by NWS

Home | Current Version | Previous Version | Graphics & Text | Print | Product List | Glossary On
Versions: 1 2 3 4 5 6 7 8 9 10 11 12 13 14 15 16 17 18 19 20 21 22 23 24 25 26 27 28 29 30 31 32 33 34 35 36 37 38 39 40 41 42 43 44 45 46 47 48 49 50
000
ASUS43 KBIS 281131
RWRND
NORTH DAKOTA REGIONAL WEATHER ROUNDUP
NATIONAL WEATHER SERVICE EASTERN NORTH DAKOTA/GRAND FORKS ND
600 AM CDT WED JUN 28 2017

  NOTE: "FAIR" INDICATES FEW OR NO CLOUDS BELOW 12,000 FEET WITH NO
  SIGNIFICANT WEATHER AND/OR OBSTRUCTIONS TO VISIBILITY.

NDZ001>003-009>011-017-281200-
...NORTHWEST NORTH DAKOTA...

CITY           SKY/WX    TMP DP  RH WIND       PRES   REMARKS
WILLISTON      FAIR      54  40  59 N8        29.71R
MINOT          FAIR      60  55  83 NW14      29.61R
MINOT AFB      FAIR      59  55  86 NW14      29.61R
$$

NDZ018>021-031>035-040>046-281200-
...SOUTHWEST NORTH DAKOTA...

CITY           SKY/WX    TMP DP  RH WIND       PRES   REMARKS
BISMARCK       MOCLDY    64  60  87 NW9       29.61R
DICKINSON      FAIR      56  54  93 NW9       29.70R
GARRISON         N/A     57  56  96 NW13      29.63R
HETTINGER      FAIR      61  55  81 NW12      29.72R
$$

NDZ004>008-012>016-024-026-027-054-281200-
...NORTHEAST NORTH DAKOTA...

CITY           SKY/WX    TMP DP  RH WIND       PRES   REMARKS
GRAND FORKS    LGT RAIN  63  61  93 NW5       29.51R
GRAND FORKS AF TSTM      61  61 100 N9        29.53R
DEVILS LAKE    LGT RAIN  62  62 100 CALM      29.56R
$$

NDZ022-023-025-028>030-036>039-047>053-281200-
...SOUTHEAST NORTH DAKOTA...

CITY           SKY/WX    TMP DP  RH WIND       PRES   REMARKS
JAMESTOWN      FAIR      59  57  93 N12       29.50R
FARGO          CLOUDY    67  62  84 SE16      29.48R
WAHPETON       CLOUDY    63  59  88 SE20      29.49S
$$




USA.gov is the U.S. government's official web portal to all federal, state and local government web resources and services.